Notices

What's New in latest Release from April 7th, 2021:

- Updated Glossary, including Speed of Maximum Gust, and Total Hourly Precipitation

- Updated national and regional climate services offices contacts and prices information

- Addition of station inventory lists for 1981-2010, 1971-2000, and 1961-1990 Normals.

If you haven't already, please take our survey and provide feedback about our website: https://eccc.sondage-survey.ca/f/LanguageSelection.aspx?s=442ca660-fcf1-47c0-95a9-59707d6fd709

Hourly Data Report for February 10, 2004

SHERBROOKE A
QUEBEC

45°26'00.000" N
71°41'00.000" W
241.40 m
7028124
71610
YSC

Download Data

Hourly Data (February 2004)
Hourly Data Report for February 10, 2004
TIME
LST
Temp Definition
°C
Dew Point Definition
°C
Rel Hum Definition
%
Precip. Amount Definition
mm

Wind Dir Definition
10's deg

Wind Spd Definition
km/h
Visibility Definition
km
Stn Press Definition
kPa
Hmdx Definition


Wind Chill Definition


Weather Definition


00:00 0.2 -6.2 62   23 13 9.7 98.37     Snow
01:00 -0.5 -5.1 71   23 11 8.0 98.36   -4 Snow
02:00 -0.2 -5.2 69   23 15 8.0 98.31   -5 Snow
03:00 -0.2 -5.6 67   22 11 15.0 98.24   -4 Snow
04:00 0.6 -7.0 57   24 19 15.0 98.19      
05:00 0.7 -7.5 54   23 11 15.0 98.19      
06:00 0.2 -6.7 60   23 13 15.0 98.17     Snow
07:00 -0.3 -6.3 64   25 11 4.8 98.19   -4 Snow
08:00 -1.5 -4.9 78   28 9 0.8 98.21   -5 Moderate Snow
09:00 -2.0 -5.3 78   28 13 0.8 98.21   -6 Moderate Snow
10:00 -1.5 -6.0 71   25 19 16.1 98.18   -7 Snow
11:00 -1.2 -6.3 68   26 22 19.3 98.16   -7 Snow Showers
12:00 -1.1 -7.1 64   26 28 19.3 98.11   -8 Snow Showers
13:00 -0.7 -8.2 57   27 24 19.3 98.06   -7 Snow Showers
14:00 -0.2 -9.0 51   26 11 24.1 98.04   -4 Mostly Cloudy
15:00 -0.6 -9.1 53   25 15 24.1 98.02   -5 Mostly Cloudy
16:00 -1.4 -8.5 58   25 11 19.3 97.94   -5 Snow Showers
17:00 -1.5 -7.8 62   20 6 19.3 97.96   -4 Snow Showers
18:00 -1.7 -7.8 63   24 9 15.0 97.97   -5  
19:00 -1.8 -8.0 63   22 7 15.0 97.97   -4  
20:00 -2.0 -8.1 63   25 9 15.0 97.92   -5  
21:00 -2.4 -8.0 65   22 11 15.0 97.89   -6  
22:00 -2.6 -8.0 66   22 7 15.0 97.87   -5  
23:00 -2.8 -7.6 69   24 13 3.5 97.82   -7 Snow

Notes on Data Quality.

Legend

  • E = Estimated
  • M = Missing
  • NA = Not Available*
  • [empty] = Indicates an unobserved value
Date modified: